GFSWCAN_con_lsi_000.txt.gz
Lid_Strength_Index
4 4 4 4 3 3 3 3 4 4 4 4 4 5 5 4 3 3 4 5 5 8 7 6 7 9 9 9 12 9 10 11 15 16 18 18 20 15 15 14 14 15 18 19 20 23 19 11 10 12 10 11 9 9
4 4 4 4 3 3 3 4 4 4 4 5 5 5 6 5 4 3 4 3 4 6 7 6 5 6 6 7 8 10 9 10 11 15 19 16 15 14 17 17 12 15 14 16 15 16 12 10 10 9 9 10 9 9
4 4 4 4 4 4 4 4 4 4 5 5 5 5 5 5 4 3 4 5 6 9 8 7 7 5 4 5 5 9 10 8 10 11 14 16 17 15 16 15 15 11 11 14 13 11 10 9 9 8 8 8 8 8
4 4 4 3 3 4 4 4 5 5 4 4 4 4 5 5 5 4 4 5 7 10 13 10 6 6 4 4 5 6 6 8 9 10 13 13 16 12 17 14 14 11 10 11 12 10 10 8 8 7 7 7 8 7
4 4 4 4 4 4 5 5 5 5 4 4 4 4 4 4 4 4 5 5 5 6 12 12 7 6 5 5 5 6 6 8 10 13 14 13 15 13 12 13 14 10 10 13 13 9 10 9 8 7 7 7 7 8
4 4 4 4 4 5 5 5 5 4 4 5 4 4 4 4 3 6 7 5 4 5 9 12 9 8 7 5 6 6 6 8 9 11 14 13 10 12 13 14 9 8 8 8 9 9 9 9 8 7 7 7 7 9
4 4 5 4 4 5 5 5 5 5 4 4 4 4 3 3 3 6 8 6 5 6 9 11 12 9 8 7 8 8 8 9 9 12 14 15 12 11 13 15 8 8 7 7 7 8 9 9 8 8 7 9 10 11
5 5 5 5 5 5 5 6 5 5 4 4 4 4 4 3 4 5 4 6 5 7 9 12 13 11 8 12 12 8 11 9 9 11 11 13 11 12 13 10 9 8 7 7 7 7 8 8 10 12 11 11 12 12
6 6 6 5 5 5 5 6 5 4 4 4 4 4 4 5 6 5 5 5 5 6 11 12 12 12 8 10 11 11 9 13 9 11 12 10 13 13 11 11 10 9 9 9 9 8 9 12 12 12 12 12 12 13
5 5 5 5 5 5 5 5 5 4 4 4 5 7 9 6 4 4 6 9 9 10 9 12 10 11 7 12 13 12 12 12 12 11 9 12 12 11 12 11 11 10 9 9 10 12 12 13 12 11 11 12 12 11
5 5 5 5 5 5 5 5 4 4 4 7 8 9 6 5 6 10 11 12 10 11 10 11 11 11 8 11 12 11 12 12 13 13 11 13 14 14 13 12 11 11 10 11 10 10 10 10 11 11 12 11 11 11
5 6 6 6 6 5 5 5 4 5 7 6 6 6 8 9 10 12 13 12 11 12 12 11 11 9 10 9 11 12 12 12 14 12 13 15 14 14 12 12 11 10 11 11 10 10 10 10 10 10 11 12 13 13
6 6 6 6 6 5 5 5 5 5 6 8 9 12 10 12 12 13 14 13 13 13 12 12 11 12 11 10 12 12 13 13 13 14 14 14 12 10 10 11 12 11 10 10 10 10 11 13 13 13 13 13 13 12
6 6 6 6 6 6 6 5 6 6 7 11 11 13 13 14 14 14 14 13 13 13 13 13 13 13 13 12 13 13 13 13 15 18 19 13 11 11 12 12 12 13 12 12 12 13 14 13 13 14 14 13 14 13
6 6 6 6 6 6 6 6 7 8 10 13 13 16 15 14 13 13 13 13 13 12 12 13 13 12 13 13 14 14 16 19 19 20 13 12 10 10 13 13 13 13 15 13 12 13 14 14 15 14 14 15 13 13
6 6 7 6 6 6 6 8 10 11 14 13 13 15 14 14 14 13 13 13 11 12 12 12 13 14 15 14 16 18 19 19 16 12 11 10 11 11 11 11 11 10 11 11 11 12 13 14 14 13 13 14 15 15
6 9 6 6 6 6 7 10 12 13 14 13 14 13 14 13 13 13 13 12 11 12 14 14 16 16 14 17 16 13 15 13 11 11 10 10 10 11 10 10 11 11 10 10 11 11 12 14 14 13 11 9 10 11
8 7 5 5 6 7 9 11 14 14 13 13 13 13 13 12 12 12 12 12 13 12 13 15 12 17 18 18 17 12 11 13 12 11 11 10 10 10 10 10 10 10 10 12 12 11 12 12 11 10 10 9 10 10
5 4 3 4 5 9 10 10 10 14 12 12 11 11 11 11 11 11 11 10 12 13 13 16 17 17 16 14 14 9 10 9 12 12 11 9 9 10 9 9 9 9 10 10 10 10 10 10 10 10 10 9 9 8
3 3 3 4 4 10 10 11 9 11 11 11 10 11 11 11 10 9 9 9 11 13 14 15 15 14 14 14 14 14 9 9 13 14 13 12 10 9 9 9 10 10 10 10 9 10 10 10 10 10 11 11 11 10
5 5 5 6 9 9 10 11 11 10 10 11 11 11 12 10 11 11 10 9 9 11 14 14 18 15 11 11 13 13 11 11 12 13 13 11 10 10 11 11 11 11 12 12 12 12 13 13 13 14 16 15 13 12
7 4 10 8 10 8 10 9 10 10 10 11 11 11 12 12 12 11 10 11 11 11 11 13 12 10 10 11 11 10 10 10 10 10 11 11 12 12 13 14 14 15 14 15 15 18 19 16 16 17 17 17 14 13
5 8 10 11 14 16 13 8 10 12 12 13 11 12 12 12 12 10 12 11 11 9 9 9 10 10 11 11 11 10 10 11 12 13 13 12 12 13 15 16 17 19 18 17 16 18 19 20 19 19 18 18 18 18
6 11 13 14 14 18 11 11 10 11 12 16 17 16 15 13 12 13 14 12 10 10 9 9 10 11 11 11 12 12 11 11 12 14 13 12 14 15 15 17 18 19 19 19 19 22 21 23 22 20 20 20 19 19
15 13 13 14 11 18 15 14 13 12 14 19 14 19 15 16 15 15 14 14 12 11 10 9 9 10 12 13 13 13 13 12 13 16 16 16 18 18 18 18 19 19 20 23 23 23 23 23 22 22 21 21 20 19
17 14 12 13 13 13 19 18 16 12 13 16 16 14 16 17 18 16 13 13 11 11 11 11 12 13 13 13 14 15 15 15 14 17 17 18 19 24 26 26 25 24 21 26 26 26 24 23 23 24 22 21 20 21
16 15 12 8 9 10 14 14 13 12 13 12 13 13 12 16 15 13 11 12 12 12 11 11 11 13 14 16 16 17 17 17 17 18 18 18 19 20 25 28 27 23 22 24 28 28 26 24 23 23 21 20 24 22
13 10 14 15 11 11 11 14 15 13 11 10 12 13 13 14 16 14 13 12 13 13 15 15 15 16 18 18 19 20 18 19 19 19 20 21 22 26 27 28 27 20 26 29 30 27 27 23 22 20 21 23 26 28
11 10 10 14 14 12 12 13 13 11 9 10 12 14 16 16 17 17 15 13 14 15 17 18 19 19 19 20 22 23 24 26 26 28 30 31 31 27 28 31 30 29 30 30 23 20 20 19 21 26 28 27 25 25
12 13 15 18 14 15 11 13 12 12 12 12 13 14 16 18 17 16 16 16 18 20 21 22 22 22 25 25 28 26 29 32 30 28 30 32 28 27 32 31 29 27 28 30 29 27 24 28 27 30 30 30 31 32
9 9 11 12 14 11 11 8 8 8 9 14 14 16 19 21 19 18 19 20 20 21 22 26 27 32 29 30 31 30 28 29 31 29 29 30 30 32 32 30 30 30 33 34 34 33 32 33 34 34 33 32 32 33
10 13 15 16 15 15 15 15 18 16 14 12 17 19 24 23 25 21 21 23 23 26 26 32 29 27 29 30 32 32 27 30 31 31 30 29 29 31 30 30 33 34 34 34 34 34 34 34 34 35 35 35 35 34
20 19 19 18 15 15 20 22 24 21 16 16 22 23 24 23 24 22 20 24 23 25 28 29 29 29 29 29 29 30 28 31 31 24 22 20 20 22 23 28 31 34 34 35 35 36 34 34 34 35 35 36 35 35

GFSWCAN_con_lsi_003.txt.gz
Lid_Strength_Index
3 3 3 4 3 3 3 3 3 4 4 4 4 4 4 3 3 2 3 3 4 7 6 5 5 8 8 8 10 8 9 9 12 13 13 14 14 13 13 12 13 13 14 15 17 16 15 10 8 11 8 7 7 7
4 4 4 4 4 4 4 4 4 4 5 5 5 4 3 3 3 3 4 3 4 6 5 4 4 4 4 5 7 9 8 9 9 12 14 14 14 14 15 14 11 13 11 12 12 12 9 8 7 6 7 7 6 6
4 4 4 4 4 4 4 4 5 5 5 4 5 5 3 2 3 3 3 4 5 7 6 5 6 4 4 4 4 7 9 7 9 9 12 13 13 13 14 13 12 10 10 11 11 9 9 8 7 6 6 6 6 6
4 4 4 4 4 4 5 5 4 4 4 5 5 5 4 4 4 3 4 5 6 8 12 8 5 6 4 4 4 5 7 8 9 9 12 13 12 11 13 11 11 10 9 10 10 8 8 7 6 5 5 6 6 5
5 4 4 4 5 5 5 5 4 4 4 4 4 5 5 4 3 2 3 4 5 5 11 10 7 6 5 5 6 6 6 7 8 10 12 11 12 11 12 11 11 9 9 11 11 7 7 7 6 6 6 6 5 6
4 4 4 5 5 5 5 5 4 4 4 5 5 5 4 5 5 4 5 4 5 6 8 11 8 8 7 5 6 6 6 7 8 9 11 11 10 9 12 12 8 7 7 6 7 7 7 6 6 5 6 5 5 6
4 4 4 5 5 5 5 5 4 4 4 4 4 4 4 4 4 7 8 6 5 6 9 12 11 8 8 7 8 7 7 8 7 10 12 12 10 10 13 12 8 7 7 6 6 6 6 6 6 6 7 10 10 10
4 4 4 4 5 5 5 5 4 4 4 4 4 4 4 4 4 4 5 5 5 6 8 11 12 11 8 10 10 8 10 8 8 10 11 11 10 10 12 10 9 8 7 7 6 6 6 9 10 11 11 10 11 11
5 5 5 5 5 5 6 5 4 4 5 5 4 4 4 4 5 5 5 5 4 5 10 12 11 12 7 10 10 9 8 12 9 11 10 9 12 12 12 12 11 11 10 9 10 11 11 12 12 11 11 11 12 12
5 5 5 5 5 5 5 4 4 4 5 5 5 7 9 6 4 4 6 8 8 9 8 12 9 11 7 11 12 11 11 12 12 10 9 11 11 12 13 12 11 11 10 8 8 11 12 12 12 12 11 10 11 11
5 5 5 5 5 5 5 5 5 5 4 6 8 9 6 5 6 10 12 11 10 12 10 10 11 10 8 10 11 11 12 12 13 11 11 12 13 13 11 11 11 11 10 10 10 10 10 10 11 11 11 10 10 10
5 5 6 6 5 5 5 5 5 6 7 6 6 6 7 9 11 12 13 12 13 13 11 11 10 9 10 8 10 11 12 12 13 11 13 14 15 13 11 11 11 10 10 10 9 10 9 9 9 9 9 10 11 11
5 5 5 5 6 5 6 6 5 6 6 7 9 11 10 12 13 16 14 12 12 12 12 12 12 11 10 10 12 11 12 13 12 13 14 15 13 11 11 11 11 10 10 9 9 9 10 11 12 12 12 12 11 11
6 6 6 6 6 6 6 6 6 7 8 12 12 14 14 13 13 13 13 13 13 13 12 12 12 12 12 12 13 12 13 13 14 15 16 14 11 12 11 11 10 10 12 12 12 12 12 12 12 12 12 12 12 11
6 6 6 7 6 6 7 7 7 8 10 13 12 16 15 14 13 13 13 12 12 11 11 12 12 11 13 13 13 14 15 16 16 16 13 12 12 12 13 12 12 12 13 12 10 11 12 13 14 12 12 12 11 11
7 7 8 6 6 6 6 8 9 10 12 12 13 14 14 13 13 13 13 13 11 12 12 12 13 13 14 14 14 15 16 18 15 13 12 11 11 11 10 11 10 9 9 9 10 10 11 12 12 11 11 11 12 11
7 10 7 6 6 7 7 10 11 12 13 13 14 13 13 13 13 13 12 12 11 12 13 13 14 15 13 15 16 13 15 13 11 11 9 9 9 9 9 8 10 10 9 9 9 10 11 12 12 10 11 10 10 9
10 9 7 6 7 8 10 11 13 13 14 14 14 14 13 13 13 12 12 12 12 12 13 14 12 16 18 18 15 12 11 10 9 9 8 8 8 8 8 8 8 8 9 10 10 10 10 10 11 11 11 11 10 10
6 6 6 6 7 11 12 12 12 15 14 13 13 13 13 13 13 12 12 12 12 14 13 15 16 15 14 13 11 11 10 9 10 10 10 10 9 9 9 9 9 9 10 10 10 10 10 10 11 12 12 13 13 12
4 4 4 4 5 10 11 12 10 12 12 12 11 11 12 11 11 10 10 9 10 12 13 14 13 13 12 12 12 11 8 8 9 11 11 10 10 10 10 10 10 10 10 10 11 12 12 12 13 14 15 15 15 15
5 5 5 6 9 9 9 10 11 10 10 10 10 10 11 10 10 10 10 9 9 10 11 12 12 11 10 10 10 9 9 10 10 10 10 12 12 12 12 12 12 12 13 14 15 16 16 16 16 16 16 17 16 15
6 5 9 8 11 10 10 9 9 11 9 10 11 10 11 11 11 11 10 10 11 11 10 10 10 9 10 11 11 10 10 10 10 10 11 11 12 13 15 15 15 15 16 16 16 18 18 17 17 18 18 18 17 16
6 8 12 13 14 14 12 10 11 11 16 16 14 15 15 12 12 11 12 11 11 9 9 10 11 10 12 11 11 11 11 11 12 12 12 13 14 15 16 17 17 18 18 18 17 18 19 21 19 20 19 18 18 18
7 11 16 18 17 16 11 12 10 11 11 13 15 19 17 17 14 14 16 14 11 10 10 10 11 12 12 12 13 12 11 11 13 14 12 13 15 15 16 17 18 19 19 19 20 21 21 21 22 21 21 21 19 19
15 12 15 16 15 18 15 15 13 13 14 14 16 20 16 14 17 19 18 15 13 12 11 10 10 11 13 13 13 13 13 12 14 16 16 16 17 17 18 18 19 19 19 21 22 23 22 22 22 22 21 21 20 19
19 11 13 13 13 14 17 18 15 13 13 18 17 16 15 14 17 17 14 14 12 12 11 11 12 13 14 13 14 15 15 14 15 17 18 18 19 20 21 22 22 21 20 22 23 23 23 23 22 22 21 20 20 21
18 13 11 9 10 11 16 16 14 13 16 16 14 14 15 15 15 14 12 12 12 13 13 12 12 13 15 15 16 16 16 16 16 17 17 18 19 19 21 22 23 21 20 22 24 24 24 23 23 21 20 19 20 21
10 9 14 15 14 12 15 16 16 14 12 10 11 15 15 16 14 15 14 12 13 14 15 16 16 16 17 17 17 17 18 18 18 19 19 20 20 21 22 22 23 21 24 24 24 24 22 22 21 20 20 21 21 21
13 13 13 16 15 14 14 14 14 12 10 12 15 16 16 16 17 17 15 14 14 15 17 18 18 18 19 20 21 22 22 20 20 24 25 23 24 21 22 23 24 23 24 24 23 20 19 18 18 20 21 22 22 22
14 12 15 18 15 15 12 12 10 13 12 13 13 15 16 18 17 16 16 16 17 18 19 19 19 18 20 21 22 22 24 25 23 22 23 23 23 22 24 24 24 24 25 25 25 24 23 23 22 23 24 24 24 24
11 10 11 12 12 11 10 10 8 8 13 16 15 17 19 19 18 18 19 20 20 19 19 20 22 26 23 24 23 24 23 23 27 25 24 24 24 24 24 24 25 26 26 26 25 25 25 24 25 26 25 26 26 27
17 16 17 17 16 16 17 19 16 14 13 13 19 20 21 21 22 19 19 21 20 20 23 24 22 22 25 25 26 25 25 23 24 25 26 25 23 24 24 24 27 27 26 25 26 26 26 26 26 26 26 27 27 28
19 19 18 19 14 14 18 20 23 21 19 17 22 23 23 21 22 20 20 22 21 22 22 22 24 25 26 26 25 24 26 24 27 25 23 22 24 22 22 23 24 26 26 25 25 27 26 26 26 27 27 28 28 29

GFSWCAN_con_lsi_006.txt.gz
Lid_Strength_Index
3 4 3 2 3 4 4 4 4 4 4 4 3 3 3 3 2 0 1 -1 2 5 4 3 3 5 6 6 9 6 7 7 7 11 13 11 13 10 10 9 11 12 13 14 13 17 17 7 7 10 6 5 5 5
4 3 3 3 3 4 4 4 4 4 4 4 4 4 3 3 2 1 2 0 -0 3 4 2 2 2 3 3 5 5 6 6 6 9 10 10 13 12 11 13 8 12 9 10 10 9 6 6 5 4 4 5 5 4
4 3 3 3 4 4 4 4 4 4 4 4 4 4 3 3 3 1 1 0 1 4 4 4 4 2 1 2 1 6 4 4 5 4 7 8 14 9 14 11 10 8 7 9 9 7 6 6 4 4 4 4 3 3
4 4 4 4 4 4 5 5 5 4 4 5 4 4 4 3 2 1 1 0 1 4 10 6 2 3 2 2 2 2 3 4 5 3 7 9 12 7 10 9 9 7 7 8 8 6 5 5 4 4 4 3 3 3
4 5 5 5 5 4 5 5 5 5 5 5 4 3 3 2 2 0 0 1 1 4 8 7 3 3 3 3 3 3 3 4 5 7 10 10 7 8 7 7 9 6 7 9 9 5 6 5 4 4 4 4 4 4
5 5 5 5 5 4 4 5 5 5 5 5 4 3 2 2 2 1 5 1 2 1 5 10 4 5 4 3 3 4 3 4 4 6 8 6 6 7 11 10 6 6 5 4 6 4 5 4 3 3 4 4 4 5
5 5 5 5 5 5 5 4 5 5 5 5 5 4 4 4 1 3 4 3 4 2 5 9 8 5 5 4 5 4 3 4 4 6 7 7 6 6 10 11 7 6 5 5 4 4 6 5 6 6 7 8 8 7
5 5 6 5 5 5 5 5 4 5 4 4 4 4 4 4 3 3 1 4 4 3 4 9 9 8 5 7 7 6 6 5 6 7 8 8 7 7 11 8 7 7 7 5 6 5 5 7 8 9 8 7 8 10
5 5 5 5 6 5 5 5 5 5 5 5 4 4 1 2 3 2 5 5 1 3 7 8 11 12 5 9 8 6 5 10 6 9 8 7 10 12 11 10 9 8 8 8 8 7 8 10 10 10 10 10 11 11
5 5 5 5 5 5 5 5 5 5 5 4 2 3 6 3 5 4 3 4 4 4 6 10 7 10 6 9 9 8 7 10 11 9 7 10 10 11 11 10 9 8 7 5 7 9 10 10 10 10 10 10 10 10
5 5 5 5 5 5 5 5 5 4 3 2 4 6 3 4 2 5 7 8 7 10 7 8 8 9 5 9 10 8 10 9 13 10 10 12 12 12 10 10 9 8 8 8 8 8 8 9 10 9 9 8 8 8
5 5 5 5 5 5 6 5 5 3 4 4 4 4 4 5 6 10 11 9 9 11 9 9 9 7 8 6 8 9 11 10 14 8 12 13 12 12 11 11 10 9 8 8 8 8 8 8 7 8 8 9 10 10
6 6 6 6 6 6 6 6 6 6 5 3 5 9 7 9 12 13 13 12 12 11 11 11 11 9 8 6 10 10 13 13 8 12 13 12 12 11 11 10 10 8 8 8 8 8 9 10 10 10 9 9 9 8
6 6 6 6 6 6 6 6 6 6 5 9 11 12 12 12 12 13 12 12 12 12 11 9 11 8 11 10 11 13 13 12 13 14 14 13 12 11 10 9 8 9 10 10 10 10 10 10 9 9 10 9 9 9
6 6 6 6 6 6 7 7 7 6 8 11 10 14 14 13 12 13 13 12 11 11 10 10 10 9 11 12 12 13 13 14 13 13 13 12 11 10 9 9 10 9 11 9 8 8 9 8 8 8 9 8 8 8
6 6 7 7 6 6 7 7 8 8 10 12 12 13 13 13 13 13 13 13 11 11 10 10 12 12 13 12 13 13 13 14 13 12 12 11 11 9 10 9 8 7 7 6 7 7 8 9 9 8 9 9 9 9
7 8 7 6 6 7 7 8 8 11 11 12 13 13 13 13 13 13 13 12 11 11 13 11 12 13 12 12 13 11 12 11 12 11 10 9 8 8 7 7 7 7 7 7 8 8 9 9 10 10 10 10 9 9
8 7 7 7 6 7 8 8 9 11 13 13 13 13 12 12 12 12 11 11 9 10 10 12 11 13 13 14 12 11 11 10 10 9 8 8 7 7 6 6 7 7 8 9 10 10 10 10 10 10 11 10 10 9
7 7 7 7 7 7 10 10 9 13 13 12 12 12 12 12 11 11 11 10 10 9 10 10 11 12 11 9 11 11 10 8 8 8 8 7 7 7 7 8 9 9 10 10 10 10 10 11 11 11 11 11 11 11
6 6 7 7 6 8 11 11 8 11 13 13 11 13 12 12 11 11 10 9 8 8 9 9 10 9 8 8 7 5 5 5 6 7 9 9 9 9 9 9 10 10 10 10 12 12 11 11 11 12 12 13 13 13
3 4 5 4 5 7 9 10 10 10 10 11 11 10 10 9 9 9 9 8 7 8 8 10 9 9 9 9 8 7 7 6 5 6 7 10 10 10 10 10 11 10 11 11 12 12 13 13 13 13 13 13 13 12
4 4 4 5 7 7 8 7 8 7 8 8 8 7 8 9 9 8 7 8 9 9 9 9 8 8 9 10 10 9 9 9 9 10 10 10 11 12 13 12 11 12 12 12 12 14 14 14 15 14 14 14 14 13
5 5 6 7 9 9 10 6 9 9 10 10 8 10 9 9 9 7 9 8 9 8 8 9 10 10 11 11 11 11 10 10 11 11 12 12 12 12 12 13 13 13 13 14 14 14 15 17 16 16 15 15 14 14
5 9 11 11 11 13 9 11 10 11 10 11 12 12 11 10 9 9 11 11 11 10 9 10 10 11 11 12 13 12 11 10 11 11 11 11 12 13 13 14 15 15 16 16 15 16 16 16 17 16 16 16 15 15
11 12 11 13 10 12 13 13 12 11 13 12 13 12 11 10 11 13 13 13 12 11 11 10 11 11 12 12 12 12 11 11 12 14 13 12 13 14 14 15 16 16 16 16 17 17 17 17 17 17 17 16 17 17
13 11 12 12 12 12 13 14 14 13 12 13 12 11 10 10 13 14 13 11 11 11 11 10 10 11 12 12 12 13 13 12 12 15 15 15 15 15 16 16 16 16 16 17 18 18 18 18 18 18 17 16 17 17
13 12 10 8 9 10 11 11 11 10 12 12 9 10 10 13 13 12 10 11 11 11 11 11 10 11 12 13 14 14 14 14 14 15 15 16 16 16 16 18 18 17 17 17 18 18 18 18 18 17 17 16 16 17
10 9 11 9 10 8 10 10 10 10 9 8 9 11 12 12 12 13 12 11 11 12 13 13 13 13 13 14 14 14 15 15 16 15 16 16 16 16 17 16 17 18 18 18 18 18 18 17 17 17 17 18 17 17
9 8 8 12 10 9 9 10 9 8 8 8 9 10 13 14 14 13 12 12 11 11 13 14 14 14 15 16 16 15 15 14 15 17 17 16 16 15 16 17 17 17 17 18 18 18 17 17 17 18 18 18 18 17
8 8 9 11 11 10 9 7 8 7 8 9 10 12 14 14 15 13 13 12 13 14 15 15 14 13 15 14 15 16 16 16 16 16 17 17 17 16 17 17 17 17 18 18 18 18 18 18 18 17 18 18 18 19
7 7 8 8 9 8 9 8 7 7 9 11 12 12 15 15 14 15 15 15 14 14 14 15 16 16 15 16 15 16 16 16 19 19 18 18 17 17 17 17 17 17 18 18 19 19 20 19 18 19 19 20 21 21
9 12 11 11 9 10 10 10 10 9 9 11 14 14 15 14 16 15 16 14 14 15 19 16 15 16 17 17 17 17 21 17 17 18 19 18 17 16 16 16 17 18 18 19 19 20 20 20 20 20 20 20 21 22
11 11 10 10 10 10 11 12 13 13 13 14 16 16 16 15 18 16 15 15 15 16 16 16 16 16 17 19 18 17 19 17 19 19 19 19 20 19 18 16 17 18 19 19 19 19 20 20 20 20 21 22 22 22

GFSWCAN_con_lsi_012.txt.gz
Lid_Strength_Index
1 1 1 1 1 0 0 0 0 0 0 1 2 5 4 5 4 3 3 1 3 6 4 3 3 4 5 6 9 7 8 7 8 11 13 12 13 11 11 9 12 13 14 15 14 17 18 5 6 10 8 4 5 5
1 1 1 0 0 0 0 0 0 0 0 1 4 4 4 4 3 3 4 2 0 5 5 2 2 2 2 2 5 6 6 7 7 9 10 10 13 12 12 14 7 12 10 12 11 12 6 4 5 4 3 4 4 4
0 0 0 0 0 0 0 0 0 1 1 4 4 4 4 3 4 3 3 2 2 4 5 4 4 2 1 1 1 6 5 4 5 4 8 9 13 10 14 12 9 7 6 9 9 6 6 5 4 3 4 4 4 4
4 3 3 2 1 1 0 1 2 2 4 3 4 4 4 4 4 4 4 2 2 4 9 7 1 3 1 1 1 2 3 3 4 5 8 10 12 7 11 10 10 7 7 8 8 6 5 5 4 4 4 4 4 4
4 4 5 5 4 4 4 3 3 3 3 4 4 4 4 4 4 3 3 1 0 3 9 7 3 2 1 2 2 2 3 4 5 8 9 10 7 9 8 8 10 6 7 10 11 6 6 6 4 4 4 5 5 4
5 5 6 5 5 5 4 4 5 5 4 4 4 4 4 4 3 2 5 1 -0 1 6 10 4 4 2 2 3 3 3 4 4 7 9 7 5 7 12 11 6 5 5 5 6 5 5 4 4 5 5 5 6 6
4 5 4 4 4 5 5 5 5 4 5 4 4 4 4 4 0 4 5 3 5 0 6 9 9 4 3 3 4 4 3 4 5 6 8 7 7 7 11 12 7 5 5 5 4 4 6 5 7 5 6 7 7 8
5 5 5 5 4 4 5 5 5 5 5 4 4 4 3 4 4 3 2 3 3 3 5 10 11 8 3 7 8 4 6 5 6 7 7 8 7 8 11 7 6 6 5 5 5 4 5 6 6 7 7 8 9 10
6 6 5 5 5 5 5 5 5 4 4 4 3 3 1 2 3 2 4 4 -0 3 9 9 11 13 4 6 6 6 5 10 5 9 8 8 9 12 8 7 7 6 6 6 6 5 6 7 8 8 9 9 10 10
6 6 6 6 5 5 5 5 5 4 4 3 1 3 6 3 4 4 2 4 5 5 5 9 7 10 6 8 9 8 8 10 12 9 6 10 10 8 8 7 6 6 5 5 7 8 8 9 9 10 10 9 9 9
6 6 6 6 6 5 4 4 3 3 3 2 4 6 2 4 2 4 8 8 8 10 7 8 7 9 5 10 11 8 11 10 13 11 11 11 12 9 7 7 6 5 5 6 6 7 8 9 9 9 10 10 10 10
6 6 6 6 6 6 5 5 4 2 2 2 2 1 2 5 6 10 11 9 10 11 10 10 8 7 7 5 9 9 11 11 14 8 12 13 10 9 8 8 7 7 7 8 8 8 8 9 9 10 11 11 12 12
7 6 6 6 6 6 5 5 5 4 4 1 4 8 7 8 12 13 14 12 12 12 11 10 11 8 7 6 9 10 13 13 8 12 13 11 10 9 9 8 8 7 7 8 9 10 10 11 11 11 12 12 11 10
6 6 6 6 7 6 6 6 5 3 3 7 10 13 12 13 13 13 13 13 13 13 11 9 10 10 10 11 11 13 12 9 14 15 13 11 11 10 9 8 8 9 11 10 10 11 12 13 13 12 12 12 11 11
6 6 6 7 6 6 6 6 6 4 7 11 10 14 14 13 13 13 13 13 12 11 10 8 9 9 11 12 11 12 13 14 13 13 12 11 10 10 9 9 10 11 11 10 10 12 12 12 13 13 12 11 10 11
5 5 7 7 6 6 6 5 6 7 10 12 13 14 13 13 14 13 13 13 11 11 9 8 11 12 13 12 12 13 14 14 13 12 12 11 11 10 9 9 10 9 9 10 10 12 12 12 12 11 11 10 11 12
5 7 7 7 6 6 6 6 9 10 11 12 14 14 13 13 14 14 13 13 11 11 13 11 13 14 12 13 14 13 14 13 13 12 11 10 10 10 9 9 10 9 9 10 11 12 12 10 10 10 11 11 10 10
7 6 7 6 5 5 6 6 9 10 13 12 13 13 13 13 13 13 12 10 10 11 12 12 11 13 13 14 13 12 13 13 11 11 10 10 8 8 8 9 9 10 11 11 10 10 9 9 9 10 11 11 10 10
8 7 7 6 5 6 9 9 8 13 13 12 12 11 11 11 10 10 11 8 8 8 9 10 12 14 14 13 14 12 12 12 12 11 10 10 9 10 10 11 10 10 9 9 8 9 11 11 11 11 12 11 11 11
6 7 7 6 5 8 11 10 7 11 13 12 11 11 11 11 10 12 11 9 8 9 12 14 15 15 14 14 13 13 12 11 11 12 12 11 10 9 9 8 9 9 10 10 11 10 10 11 11 11 12 11 11 12
5 6 6 5 6 8 10 10 11 11 11 12 11 10 11 10 11 11 10 8 12 14 14 13 13 13 13 13 13 13 12 12 12 9 9 10 9 9 9 8 8 9 10 10 11 12 12 12 12 12 11 11 11 11
4 4 4 4 7 8 9 8 9 8 10 10 10 10 12 12 12 11 9 12 14 13 12 12 12 11 12 12 11 10 10 10 10 10 9 9 10 10 10 10 11 12 12 12 12 12 12 13 13 12 12 12 12 11
3 3 4 5 9 8 10 6 9 9 11 10 8 10 10 10 9 6 10 11 11 10 9 10 10 10 11 10 10 11 10 10 11 12 12 12 12 13 13 13 12 12 13 13 12 12 13 13 13 13 12 12 12 12
4 8 9 9 9 11 7 10 8 9 8 10 10 11 11 10 8 9 12 12 11 10 10 10 9 10 11 11 13 12 11 11 11 11 11 12 13 14 13 13 13 14 13 12 12 13 13 13 14 13 13 14 13 14
9 11 9 11 8 9 11 11 10 10 12 11 11 11 11 9 11 12 13 12 12 12 11 10 10 10 11 12 13 13 12 12 13 14 12 11 12 12 13 13 14 14 13 14 14 14 14 14 14 14 15 14 14 14
12 11 11 11 11 11 11 12 12 12 11 11 11 10 9 10 12 13 13 12 12 13 12 11 10 11 12 11 12 12 12 10 10 13 13 12 12 11 12 13 13 15 14 14 15 16 15 15 15 15 15 15 15 15
13 12 10 8 9 9 10 9 9 9 10 11 10 10 9 12 13 13 11 11 11 11 11 10 10 11 11 12 12 12 12 12 12 13 12 12 13 13 14 15 16 16 15 15 15 16 17 16 16 16 16 14 14 15
10 10 11 10 9 8 10 9 9 9 9 8 8 10 11 12 14 11 11 10 10 10 10 11 11 11 11 11 11 11 11 11 12 11 12 12 12 13 13 13 14 15 15 14 15 15 15 16 16 16 16 16 16 14
9 8 7 10 8 8 9 9 9 8 7 8 9 10 12 13 12 11 11 10 8 8 10 11 11 11 11 12 12 12 12 13 13 14 14 14 13 14 13 13 13 14 14 14 14 14 14 15 16 16 16 16 15 14
9 7 8 8 9 9 8 7 7 7 8 8 9 11 12 13 12 11 11 11 11 12 12 11 11 12 12 12 13 14 14 15 16 16 17 17 16 14 14 14 15 14 14 15 15 15 15 15 15 15 15 15 15 16
7 6 7 8 8 8 8 7 6 7 7 9 9 10 13 14 13 12 13 11 11 12 11 13 14 13 14 15 15 15 15 15 15 16 16 16 15 15 14 14 14 14 15 15 16 16 16 16 16 17 16 17 17 17
8 9 9 10 8 7 7 8 8 8 7 9 11 10 11 11 14 14 13 12 13 14 14 14 14 15 15 14 14 14 19 15 15 15 16 16 16 15 15 15 15 14 14 15 15 16 16 16 17 17 17 17 18 19
7 7 7 8 8 9 7 8 9 10 10 11 12 11 12 13 16 14 12 12 14 14 15 14 14 13 14 15 15 15 15 14 14 14 14 15 18 17 17 16 15 16 16 17 17 16 16 16 17 17 18 19 18 19

GFSWCAN_con_lsi_015.txt.gz
Lid_Strength_Index
2 3 2 2 2 1 2 2 1 0 0 -0 -0 1 0 1 2 3 4 3 4 7 6 5 4 6 7 8 11 8 9 9 12 13 13 15 15 13 13 11 13 14 15 16 15 17 18 7 8 12 9 7 7 7
2 2 2 1 2 2 1 1 0 0 0 0 0 1 1 3 3 3 5 3 2 5 6 3 3 3 3 4 7 7 8 8 8 11 12 13 15 14 14 16 9 14 12 14 13 13 8 7 7 6 6 7 7 7
1 2 2 2 2 1 1 0 0 0 0 0 0 1 1 3 3 4 6 3 3 5 6 5 6 3 3 2 2 8 7 6 7 6 9 11 13 14 15 14 13 10 8 12 12 9 8 7 7 6 5 5 5 6
1 1 1 1 1 1 0 0 0 0 0 0 1 1 2 3 3 4 6 3 3 5 11 8 2 4 3 3 2 3 5 4 5 6 10 11 12 9 13 11 12 9 9 9 10 8 7 7 6 5 5 5 6 7
1 0 0 0 0 0 0 0 0 0 0 1 2 2 3 3 3 3 4 3 3 5 10 9 4 3 2 3 3 3 4 6 7 10 13 12 11 11 13 12 14 9 9 12 14 8 8 7 6 6 7 7 7 8
3 3 1 0 0 0 0 0 0 0 2 2 2 2 3 3 4 4 7 4 3 3 7 11 5 5 4 3 4 5 5 6 6 8 11 9 7 10 14 15 8 7 6 6 8 6 7 7 8 7 8 8 8 8
5 5 4 3 2 2 2 1 2 2 2 3 3 3 4 4 4 5 6 4 4 4 7 10 11 6 4 4 5 5 5 6 6 8 12 10 9 8 14 14 8 7 7 6 6 7 8 7 9 8 9 9 9 9
6 6 6 5 4 4 5 4 4 4 3 3 3 4 4 4 3 4 2 4 4 4 5 12 11 10 4 10 11 6 9 8 8 10 10 12 10 13 14 9 8 7 6 6 7 7 8 9 9 9 9 9 10 11
5 5 6 6 5 5 5 4 4 4 4 4 4 4 3 5 4 4 4 4 1 4 11 12 12 13 6 10 10 9 8 13 9 14 12 11 15 13 9 9 9 7 7 8 8 8 9 10 10 9 10 10 11 11
5 5 5 5 5 5 5 5 4 4 4 4 3 4 8 5 4 4 4 7 8 7 7 12 8 11 7 12 12 12 12 14 15 14 9 12 16 11 9 9 8 7 7 8 11 11 10 10 10 10 10 10 10 12
5 5 5 5 5 5 5 5 5 4 4 3 5 7 4 4 3 8 12 11 11 13 10 10 10 11 7 12 12 12 13 13 14 13 14 16 16 11 10 9 9 9 8 8 8 8 9 9 10 11 12 12 14 14
6 6 6 5 4 5 5 4 4 3 3 3 3 3 4 5 8 12 13 12 12 12 11 11 11 9 11 8 13 11 13 13 16 12 13 14 13 11 10 9 9 9 10 9 8 9 9 10 10 12 13 14 14 14
6 6 6 6 5 4 4 4 4 3 3 4 7 10 8 11 12 15 15 14 13 12 11 12 13 11 10 9 12 12 13 14 12 13 14 14 11 11 10 10 9 9 9 10 10 11 11 12 12 13 13 13 13 13
6 6 6 6 6 5 5 4 4 4 5 9 12 14 13 13 14 14 14 14 13 13 13 12 13 13 13 13 13 13 13 13 14 16 16 14 12 10 9 8 9 11 12 13 13 13 13 13 14 13 13 13 15 15
7 7 6 7 6 6 6 6 5 6 9 13 13 15 15 14 13 13 13 13 13 12 12 12 12 11 13 13 13 13 14 15 15 15 13 12 11 10 10 11 12 12 12 13 12 13 14 14 14 14 14 15 15 16
5 6 8 7 6 6 6 6 7 9 11 13 13 13 13 13 14 13 13 13 12 13 12 12 13 13 14 13 14 14 14 16 16 14 13 11 11 11 11 11 11 11 12 12 12 13 13 14 15 14 15 16 16 16
6 9 6 6 6 6 6 7 9 12 13 13 14 14 14 14 14 14 14 13 12 13 13 13 14 15 14 14 15 14 16 14 14 13 12 11 11 11 11 11 11 11 12 13 13 13 13 13 15 15 14 13 12 13
9 7 6 6 5 6 7 8 11 12 14 14 14 14 13 13 13 14 13 12 12 13 13 14 13 14 15 16 16 14 14 13 13 13 12 11 10 10 9 10 11 12 13 13 13 13 14 14 14 14 13 13 13 13
8 7 6 6 6 8 12 11 10 14 14 13 13 13 13 13 12 12 12 11 11 11 12 13 16 17 17 16 16 15 13 13 13 12 12 11 11 11 11 12 12 12 12 13 13 14 14 13 13 14 14 14 15 15
6 7 6 6 6 11 13 13 9 13 14 13 13 13 13 13 12 13 12 12 12 13 15 16 17 16 16 16 15 14 14 12 12 13 13 12 12 12 12 12 13 13 13 12 12 12 13 14 13 14 15 15 17 19
7 8 6 6 9 10 12 13 13 12 13 13 13 13 14 13 13 13 14 13 15 15 16 15 15 15 14 14 13 13 14 14 14 12 13 14 13 12 12 11 11 11 12 12 13 15 15 16 15 15 19 21 21 20
7 5 9 9 11 12 13 11 13 12 13 13 14 13 14 16 15 13 14 16 16 15 15 15 15 15 15 15 15 14 13 14 14 13 13 12 14 13 13 13 14 15 15 14 14 15 16 15 16 17 20 21 17 17
4 6 9 9 14 14 16 10 15 13 16 14 13 14 14 14 14 12 16 14 15 12 12 12 12 12 13 13 12 12 11 12 13 13 14 14 14 15 15 15 14 15 15 15 13 14 14 15 16 18 18 19 21 20
5 9 12 13 13 13 13 15 11 12 13 12 13 15 13 13 12 14 15 14 13 12 11 11 10 12 13 14 15 14 13 13 14 14 13 14 15 15 15 15 15 15 14 14 14 15 15 19 18 19 23 24 25 25
14 14 13 17 13 16 17 13 14 14 13 13 15 14 13 12 15 14 15 14 15 15 14 12 13 13 14 15 15 14 13 13 15 16 14 13 14 14 15 15 15 15 15 18 19 22 22 23 24 25 24 26 24 23
15 12 13 12 12 13 12 14 13 13 12 13 12 11 11 13 17 17 15 15 16 16 15 14 13 15 15 14 15 15 15 12 13 15 15 14 15 15 16 17 17 19 18 22 24 25 24 24 26 25 25 22 21 20
14 13 11 9 10 10 11 11 11 13 15 14 13 11 15 14 18 15 14 13 14 14 13 12 12 13 13 14 13 14 14 14 14 14 14 14 14 15 17 22 23 21 21 22 24 26 26 26 26 25 25 22 21 23
11 11 13 11 10 10 13 13 15 14 12 10 10 16 17 16 17 13 12 11 12 12 12 13 13 13 14 14 14 14 14 14 15 14 14 15 15 18 20 21 20 17 20 20 23 22 22 23 25 26 26 25 26 26
11 10 12 14 10 10 10 11 11 10 9 9 15 16 16 15 14 13 12 11 11 12 13 14 14 15 15 15 15 16 17 17 18 21 22 22 21 20 21 23 22 23 23 23 19 17 19 21 20 22 25 21 20 21
11 11 13 15 17 13 11 9 9 9 9 9 13 13 15 16 15 14 14 13 13 15 14 14 14 16 17 17 18 18 19 20 20 23 26 27 26 22 22 20 23 24 23 25 25 23 19 21 21 24 24 22 20 23
8 10 13 13 14 10 9 8 7 9 9 12 14 16 17 17 17 15 15 13 15 14 15 18 17 17 17 18 19 23 23 23 23 23 24 25 25 25 20 19 21 24 22 20 21 24 25 26 22 23 25 25 22 24
9 10 15 15 12 10 8 9 9 10 10 12 15 18 18 17 21 19 15 15 16 16 16 16 18 20 21 21 22 23 23 23 21 24 24 26 26 26 26 25 25 20 19 20 23 25 21 21 23 21 22 24 26 27
12 13 13 15 14 13 13 14 13 15 15 16 16 16 18 19 21 18 15 15 19 20 18 17 17 17 19 21 23 22 20 22 21 18 17 17 20 21 26 25 25 25 26 26 26 26 23 20 19 21 23 26 26 25

GFSWCAN_con_lsi_018.txt.gz
Lid_Strength_Index
3 3 3 3 3 3 3 3 3 2 2 2 2 1 1 1 2 1 4 2 5 7 6 5 5 6 7 7 11 9 9 9 13 13 14 15 16 14 14 12 13 14 16 18 15 18 17 7 9 12 11 8 8 8
3 3 3 3 3 3 3 3 2 2 2 2 2 1 1 1 1 1 4 2 3 6 6 4 3 3 3 4 7 7 8 8 8 11 13 14 16 16 15 16 10 14 11 14 13 13 8 8 8 6 7 8 8 7
3 3 3 3 3 2 2 2 2 2 2 2 1 1 0 0 0 2 4 2 3 6 6 6 6 4 2 3 3 8 7 6 7 6 11 11 14 15 16 16 13 10 8 12 11 10 9 8 6 6 6 6 7 7
2 2 2 2 1 1 2 2 1 0 0 0 -0 -0 -0 1 0 2 4 3 3 5 10 8 2 4 3 2 3 3 4 4 5 8 11 14 13 10 15 12 13 10 9 11 12 9 8 7 6 7 8 8 8 8
1 2 2 1 1 1 1 1 0 0 0 0 0 -0 0 1 1 3 3 3 2 5 9 9 5 4 3 3 3 3 4 5 8 10 14 13 13 11 16 13 15 9 10 13 14 8 8 8 8 7 8 9 9 10
1 1 1 1 1 0 0 0 0 0 0 0 -0 0 1 1 1 4 7 4 3 3 8 12 5 5 5 3 4 5 5 5 6 9 13 10 7 11 14 16 9 8 8 8 8 7 8 9 9 8 10 10 10 10
1 1 1 1 0 0 0 0 0 0 0 0 1 1 1 2 4 6 7 2 3 2 7 11 10 6 4 5 6 6 5 6 7 8 12 11 10 10 16 15 9 8 8 8 8 8 9 9 11 10 10 10 10 11
2 1 1 1 1 0 0 0 0 0 0 1 1 1 2 3 3 4 2 3 2 4 5 11 12 10 4 10 10 7 10 9 9 10 11 13 10 14 14 10 9 9 9 9 9 8 9 10 10 10 10 11 12 12
4 3 2 1 1 1 1 0 0 1 1 1 2 2 3 4 6 5 4 5 4 5 10 12 12 13 7 10 11 10 10 12 9 13 13 12 14 15 11 10 9 9 10 11 9 9 10 11 10 11 12 12 12 13
5 5 4 3 3 2 2 2 1 2 2 2 3 5 8 5 4 4 4 7 8 8 10 12 10 12 8 13 12 13 12 13 15 14 11 14 17 11 11 10 9 9 10 10 11 12 11 11 11 11 12 12 12 13
5 5 5 4 4 3 3 2 2 3 3 4 5 8 4 4 5 8 12 11 11 13 11 11 12 11 7 12 13 12 13 14 16 14 14 14 16 12 10 10 9 9 9 9 9 9 10 11 12 13 14 13 14 14
4 4 5 5 4 4 4 3 3 3 3 3 4 3 5 7 11 12 13 12 13 14 12 11 11 10 10 7 11 12 13 14 14 12 15 17 13 11 11 11 11 10 10 10 10 11 11 11 12 13 14 14 14 14
5 5 4 5 4 4 4 4 4 3 3 5 7 11 10 12 14 16 15 14 14 13 12 12 12 12 11 10 13 13 13 14 14 14 15 15 11 11 11 11 11 9 10 11 11 12 12 13 13 13 14 14 14 14
6 5 5 5 5 4 4 4 5 5 6 11 13 15 13 14 14 15 14 13 13 13 13 12 12 13 13 13 14 13 14 13 15 16 16 13 11 11 10 10 12 12 13 14 13 14 14 14 14 14 14 15 15 16
6 6 6 6 6 6 5 6 6 7 11 13 13 16 15 14 13 13 13 13 13 12 13 12 12 11 13 13 14 14 14 16 15 16 14 13 12 12 12 12 13 13 14 14 14 14 14 14 15 15 15 15 16 17
7 7 7 6 6 6 6 6 8 10 12 14 13 14 13 13 14 13 13 13 12 13 12 12 13 14 15 14 15 16 15 17 16 15 14 12 13 12 12 12 12 13 13 14 14 14 14 15 15 15 16 17 17 18
7 9 7 6 6 6 6 8 10 13 13 14 14 13 13 13 14 13 13 13 11 12 13 15 15 16 14 15 17 15 17 15 14 13 12 11 12 12 12 12 13 13 13 13 13 14 14 15 15 16 16 16 15 16
10 9 6 6 7 7 8 9 12 13 14 14 15 14 13 13 13 13 13 12 12 13 13 14 13 16 18 18 18 15 14 13 13 12 12 11 11 11 11 12 12 13 13 13 13 13 15 15 15 16 15 15 15 14
8 7 6 6 7 10 12 11 11 14 14 14 13 13 13 13 13 13 13 12 11 12 13 15 17 18 18 17 17 16 15 13 14 14 13 12 12 12 13 13 13 13 13 14 14 15 16 15 16 15 15 15 16 16
7 7 7 7 7 12 13 13 11 13 14 14 13 13 13 13 13 14 14 14 13 14 16 18 18 18 17 16 15 15 15 13 13 14 14 13 13 13 13 14 14 14 14 15 15 15 15 15 15 15 15 16 18 18
9 9 8 10 12 12 14 14 13 13 13 14 14 14 14 13 15 16 16 15 16 16 18 17 17 17 15 15 15 15 15 15 15 13 14 15 15 15 15 14 14 14 15 15 16 16 16 16 16 16 17 19 20 19
9 7 13 11 14 14 15 14 14 14 14 14 15 15 17 17 16 16 15 17 17 16 16 16 16 16 17 17 16 16 15 16 15 16 16 16 16 16 16 15 15 16 15 15 16 16 16 16 16 16 17 19 18 17
7 9 12 13 16 17 18 13 17 14 18 17 16 17 16 16 14 14 18 16 16 15 14 16 16 16 17 16 16 16 15 15 16 15 15 16 16 16 16 15 15 15 16 15 14 15 16 16 16 18 19 20 23 23
7 12 15 16 15 17 17 16 13 14 15 16 16 14 15 15 14 16 17 16 15 15 14 13 13 15 15 15 16 16 15 14 15 15 15 16 17 17 16 17 17 16 16 16 16 17 17 19 20 21 24 26 27 28
15 16 17 20 17 17 18 14 13 13 15 18 17 15 13 15 17 18 18 17 17 17 16 14 15 15 16 17 17 16 15 15 16 17 16 14 16 16 16 17 18 17 17 19 22 23 24 26 28 29 27 30 26 26
15 14 15 13 13 15 14 16 15 14 15 15 14 12 16 18 22 21 17 19 18 18 17 16 17 17 16 16 17 17 16 13 14 17 16 15 16 18 18 19 20 20 19 24 27 28 28 28 29 29 29 25 22 23
16 17 12 11 11 13 14 15 16 18 20 17 15 14 16 22 22 17 14 14 15 16 14 14 14 14 15 15 14 14 15 15 15 16 15 15 16 17 20 24 24 21 23 25 28 29 27 28 29 30 31 31 29 29
13 13 15 13 16 16 20 21 21 18 17 13 14 20 19 22 20 15 13 12 13 13 13 14 14 14 16 17 17 17 17 16 15 16 16 17 17 18 19 20 20 16 23 27 27 24 24 25 24 26 27 29 27 29
12 12 16 18 19 18 16 16 16 13 10 14 19 19 19 16 16 16 14 13 12 14 16 16 16 16 17 18 18 18 19 19 23 25 28 27 27 24 21 22 22 24 26 27 22 20 22 25 22 24 27 27 22 25
15 18 19 22 17 14 12 13 16 12 11 16 16 16 17 18 16 15 15 16 17 18 17 17 17 18 20 23 22 20 21 22 22 26 28 30 26 24 26 25 25 25 25 28 25 23 22 28 26 26 26 28 28 27
12 18 18 17 14 11 10 9 12 12 18 18 19 20 21 19 19 16 16 16 16 18 18 20 21 22 23 23 27 29 26 23 25 26 27 29 30 31 30 30 30 30 28 27 27 27 27 28 29 26 25 24 26 28
19 20 19 18 15 13 14 12 14 12 16 19 22 24 21 23 24 20 17 20 19 19 20 20 21 21 24 27 28 24 23 24 24 25 24 25 24 26 25 28 31 32 31 31 32 31 31 28 25 23 21 24 25 29
18 21 22 21 16 18 19 18 14 17 18 19 19 21 22 22 23 20 18 18 21 24 24 24 23 21 20 23 25 26 23 27 27 22 22 21 24 23 27 30 30 29 28 28 30 31 28 27 27 26 25 23 24 26